Flight Information

DEPARTURE
ALBUQUERQUE, NM
Elevation:
5354
Runways:
3/21 - 10000x150 - CONC-G
12/30 - 6000x150 - CONC-G
8/26 - 13793x150 - CONC-G
Active PE Departure:
3 - 8
Current PE ATIS:
V
Altimeter:
30.16
Remarks:
V F R DEPARTURES CONTACT CLEARANCE DELIVERY, ADVISE ON COURSE HEADING, ALTITUDE, AND IF FLIGHT FOLLOWING IS REQUESTED.
ATIS:
118 505-856-4928
Clearance Delivery:
119.2
Ground:
121.9
Tower:
ALBUQUERQUE TOWER 120.3
DESTINATION
,
Elevation:
TPA:
1000 (est.)


6211.8 NM80° True-12° Var68° HDG

Flight Plan:
(click to file on line)

1. Type
2. Aircraft Identification
3. Aircraft Type / Special Equipment
4. True Airspeed
kts
5. Departure Airport
(ICAO code)
6. Arriving Airport
(ICAO code)
7. Cruising Altitude
ft
8. Alternate Airport
(ICAO code)
9. Route of Flight
10. Remarks


00:00:00 Departure ATIS: Destination ATIS:

Clearance Limit:
Route:
Altitude: Expect in minutes
Frequency:
Transponder: (7500 Hijack / 7600 Lost Comms / 7700 Emergency)


KABQ 051652Z VRB03KT 10SM FEW065 28/10 A3016 RMK AO2 SLP116 T02780100
Time: 2020-07-05T16:52:00Z
1593971204
Winds: variable
Visibility: 10.0 sm
Clouds (AGL): FEW 6500
Temperature: 27.8 C
Dew Point: 10.0 C
Pressure: 30.159449 in Hgbr


Notes:

Data extracted from FAA Digital Chart Supplement. Effective: 0901Z Thursday, May 21, 2020 to 0901Z Thursday, Jul 16, 2020
Current ATIS data is provided courtisy of PilotEdge.